sat.trackr.live / text

‹ back to catalog

APRIZESAT 6

NORAD 37793 · 2011-044F

PAYLOAD ACTIVE UNKNOWN

§ Identity

Operator
Country
US
Launch date
2011-08-17
Launch site
DLS
Launch vehicle
Mass (kg)
RCS (m²)
0.17

Purposes: tech_demo

External: N2YO · Heavens-Above · Gunter

§ Orbital elements

Epoch: 2026-05-25T04:44:21.992064Z

Period
97.50 min
Inclination
98.2378°
Eccentricity
0.0043567
Mean motion
14.76877777 rev/d
Perigee alt
608.6 km
Apogee alt
669.8 km
Semi-major
7,017.3 km
B*
8.5891e-5
RAAN
55.2266°
Arg perigee
157.8312°
Mean anomaly
359.1148°
Rev number
79,375

§ Raw data

APRIZESAT 61 37793U 11044F   26145.19747676  .00000557  00000+0  85891-4 0  99952 37793  98.2378  55.2266 0043567 157.8312 359.1148 14.76877777793759

JSON: /api/v1/satellites/37793 · /tle

For live sub-satellite position, see the globe view (requires WebGL).

§ Visibility from observer

Set your observer location to see the next 7 days of passes ≥ 10°. The values pass through the URL so the page stays shareable.

No JS? Fill the form by hand. The geolocation button needs JavaScript.

§ Radio — SatNOGS DB

ModeDescriptionDownlinkUplink
GMSK Store and dump 400.591 MHz

1 transmitter · refreshed weekly from db.satnogs.org